GTI8608 PAFA-ZHEC

Flight info

Callsign GTI8608
Flight time N/A
Altitude 29000
Route PUYVO5 PUYVO DCT CAWIN J115 TED J511 AMOTT Q47 AKN J115 DUT DCT 53N169W 51N171W 49N173W 47N175W 45N177W 43N179W 39N177E 39N173E 39N169E 39N165E 39N161E 39N157E 39N153E DCT EMRON OTR7 ADNAP Y807 LALID Y804 INUBO Y60 ISAKY Y592 POTET A593 LAMEN/K0939F290 A593 AKARA/K0939S0885 A593 PK R343 ESBAG W581 SNQ W546 OREVO W164 VILID V65 IKUBA W50 OTBUG OTBUG8
Aircraft B77L/H-SDE1E2E3FGHIJ2J3J4J5M1RWXY/LB1D1

Departure

Time 2026-04-27 09:17
Airport Fairbanks International Airport (PAFA)

Arrival

Time N/A
Airport Ezhou Huahu International Airport (ZHEC)
Time Latitude Longitude Altitude Speed Heading
2026-04-27 08:44 64.80318 -147.89265 445 ft 0 kts 127°
2026-04-27 09:12 64.80315 -147.89253 444 ft 2 kts 127°
2026-04-27 09:12 64.80296 -147.89195 444 ft 6 kts 127°
2026-04-27 09:12 64.80295 -147.89116 444 ft 4 kts 62°
2026-04-27 09:13 64.80312 -147.89069 444 ft 3 kts 44°
2026-04-27 09:13 64.80325 -147.89041 444 ft 1 kts 39°
2026-04-27 09:13 64.80332 -147.89027 444 ft 0 kts 39°
2026-04-27 09:13 64.80339 -147.89015 444 ft 1 kts 39°
2026-04-27 09:14 64.80357 -147.88980 444 ft 3 kts 41°
2026-04-27 09:14 64.80369 -147.88940 444 ft 3 kts 64°
2026-04-27 09:14 64.80368 -147.88876 444 ft 4 kts 112°
2026-04-27 09:14 64.80350 -147.88808 444 ft 4 kts 127°
2026-04-27 09:15 64.80328 -147.88744 444 ft 5 kts 128°
2026-04-27 09:15 64.80308 -147.88683 444 ft 4 kts 128°
2026-04-27 09:15 64.80287 -147.88621 444 ft 4 kts 128°
2026-04-27 09:15 64.80281 -147.88573 444 ft 2 kts 77°
2026-04-27 09:16 64.80290 -147.88541 444 ft 2 kts 42°
2026-04-27 09:16 64.80304 -147.88515 444 ft 14 kts 39°
2026-04-27 09:16 64.80573 -147.88016 444 ft 84 kts 38°
2026-04-27 09:16 64.81220 -147.86830 443 ft 149 kts 38°
2026-04-27 09:17 64.82194 -147.85037 498 ft 200 kts 38°
2026-04-27 09:17 64.83281 -147.83072 1300 ft 201 kts 38°
2026-04-27 09:17 64.84373 -147.81152 2022 ft 204 kts 36°
2026-04-27 09:17 64.85756 -147.79890 2299 ft 225 kts
2026-04-27 09:18 64.87399 -147.80060 2516 ft 250 kts 345°
2026-04-27 09:18 64.88999 -147.82007 2798 ft 273 kts 319°
2026-04-27 09:18 64.90160 -147.85596 3328 ft 283 kts 291°
2026-04-27 09:18 64.90512 -147.90099 4054 ft 281 kts 261°
2026-04-27 09:19 64.89912 -147.94284 4825 ft 274 kts 232°
2026-04-27 09:19 64.88628 -147.97508 5580 ft 271 kts 219°
2026-04-27 09:19 64.87221 -148.00424 6328 ft 272 kts 219°
2026-04-27 09:19 64.85822 -148.03294 7061 ft 273 kts 219°
2026-04-27 09:20 64.84390 -148.06220 7745 ft 275 kts 219°
2026-04-27 09:20 64.82954 -148.09155 8441 ft 276 kts 218°
2026-04-27 09:20 64.81498 -148.12122 9077 ft 278 kts 218°
2026-04-27 09:20 64.80038 -148.15096 9742 ft 279 kts 218°
2026-04-27 09:21 64.78584 -148.18053 10353 ft 281 kts 218°
2026-04-27 09:21 64.77110 -148.21043 10875 ft 285 kts 219°
2026-04-27 09:21 64.75572 -148.24158 11225 ft 297 kts 219°
2026-04-27 09:21 64.73979 -148.27380 11415 ft 314 kts 219°
2026-04-27 09:22 64.72278 -148.30818 11678 ft 329 kts 220°
2026-04-27 09:22 64.70519 -148.34320 11912 ft 345 kts 217°
2026-04-27 09:22 64.68491 -148.37602 12207 ft 359 kts 213°
2026-04-27 09:22 64.66389 -148.40846 12493 ft 374 kts 213°
2026-04-27 09:23 64.64188 -148.44232 12900 ft 385 kts 214°
2026-04-27 09:23 64.61929 -148.47707 13512 ft 390 kts 214°
2026-04-27 09:23 64.59675 -148.51169 14199 ft 393 kts 214°
2026-04-27 09:23 64.57382 -148.54683 14853 ft 398 kts 214°
2026-04-27 09:24 64.55061 -148.58234 15444 ft 404 kts 214°
2026-04-27 09:24 64.52728 -148.61797 16061 ft 408 kts 215°
2026-04-27 09:24 64.50354 -148.65416 16696 ft 411 kts 214°
2026-04-27 09:24 64.47950 -148.69070 17360 ft 414 kts 214°
2026-04-27 09:25 64.45539 -148.72729 17965 ft 418 kts 214°
2026-04-27 09:25 64.43112 -148.76405 18545 ft 421 kts 214°
2026-04-27 09:25 64.40668 -148.80100 19197 ft 423 kts 214°
2026-04-27 09:25 64.38204 -148.83815 19858 ft 425 kts 214°
2026-04-27 09:26 64.35729 -148.87540 20513 ft 427 kts 214°
2026-04-27 09:26 64.33231 -148.91287 21118 ft 429 kts 214°
2026-04-27 09:26 64.30746 -148.95012 21699 ft 431 kts 214°
2026-04-27 09:26 64.28252 -148.98791 22281 ft 433 kts 214°
2026-04-27 09:27 64.25739 -149.02605 22889 ft 434 kts 214°
2026-04-27 09:27 64.23257 -149.06363 23448 ft 435 kts 214°
2026-04-27 09:27 64.20700 -149.10226 23932 ft 438 kts 214°
2026-04-27 09:27 64.18159 -149.14053 24433 ft 440 kts 214°
2026-04-27 09:28 64.15604 -149.17892 24805 ft 444 kts 214°
2026-04-27 09:28 64.13022 -149.21764 25269 ft 446 kts 214°
2026-04-27 09:28 64.10337 -149.25201 25768 ft 449 kts 207°
2026-04-27 09:28 64.07422 -149.27779 26246 ft 453 kts 199°
2026-04-27 09:29 64.04344 -149.29399 26658 ft 458 kts 191°
2026-04-27 09:29 64.01163 -149.30002 27030 ft 466 kts 183°
2026-04-27 09:29 63.97953 -149.29540 27419 ft 472 kts 175°
2026-04-27 09:29 63.94706 -149.28189 27941 ft 475 kts 173°
2026-04-27 09:30 63.91479 -149.26706 28456 ft 476 kts 173°
2026-04-27 09:30 63.88252 -149.25229 28748 ft 478 kts 173°
2026-04-27 09:30 63.85005 -149.23755 28768 ft 476 kts 173°
2026-04-27 09:31 63.78514 -149.20833 28784 ft 471 kts 173°
2026-04-27 09:31 63.72084 -149.17970 28792 ft 472 kts 173°
2026-04-27 09:32 63.65599 -149.15103 28782 ft 472 kts 173°
2026-04-27 09:32 63.59208 -149.12295 28776 ft 472 kts 173°
2026-04-27 09:33 63.52763 -149.09479 28755 ft 473 kts 173°
2026-04-27 09:33 63.46337 -149.06685 28761 ft 473 kts 173°
2026-04-27 09:34 63.39947 -149.03919 28772 ft 471 kts 173°
2026-04-27 09:34 63.33544 -149.01161 28786 ft 471 kts 173°
2026-04-27 09:35 63.27078 -149.00345 28785 ft 466 kts 188°
2026-04-27 09:35 63.20824 -149.03238 28805 ft 458 kts 198°
2026-04-27 09:36 63.14744 -149.06889 28803 ft 458 kts 198°
2026-04-27 09:36 63.08638 -149.10550 28795 ft 456 kts 198°
2026-04-27 09:37 63.02551 -149.14183 28801 ft 456 kts 198°
2026-04-27 09:37 62.96440 -149.17816 28797 ft 456 kts 198°
2026-04-27 09:38 62.90323 -149.21439 28814 ft 456 kts 198°
2026-04-27 09:38 62.84250 -149.25018 28820 ft 453 kts 198°
2026-04-27 09:39 62.78154 -149.28598 28821 ft 457 kts 198°
2026-04-27 09:39 62.72056 -149.32163 28828 ft 455 kts 198°
2026-04-27 09:40 62.65965 -149.35709 28832 ft 455 kts 198°
2026-04-27 09:40 62.59899 -149.39224 28836 ft 453 kts 198°
2026-04-27 09:41 62.53813 -149.42737 28838 ft 453 kts 198°
2026-04-27 09:41 62.47730 -149.46233 28843 ft 454 kts 198°
2026-04-27 09:42 62.41671 -149.49701 28828 ft 454 kts 198°
2026-04-27 09:42 62.35580 -149.53171 28819 ft 453 kts 198°
2026-04-27 09:43 62.29491 -149.56627 28824 ft 453 kts 198°
2026-04-27 09:43 62.23430 -149.60053 28826 ft 452 kts 198°
2026-04-27 09:44 62.17393 -149.63451 28837 ft 452 kts 198°
2026-04-27 09:44 62.11348 -149.66838 28854 ft 452 kts 197°
2026-04-27 09:45 62.05245 -149.70245 28873 ft 453 kts 197°
2026-04-27 09:45 61.99218 -149.73596 28864 ft 452 kts 197°
2026-04-27 09:46 61.93110 -149.76976 28871 ft 451 kts 197°
2026-04-27 09:46 61.87073 -149.80306 28883 ft 451 kts 197°
2026-04-27 09:47 61.81006 -149.83637 28864 ft 450 kts 197°
2026-04-27 09:47 61.74998 -149.86922 28886 ft 449 kts 197°
2026-04-27 09:48 61.68949 -149.90216 28877 ft 451 kts 197°
2026-04-27 09:48 61.62907 -149.93494 28895 ft 449 kts 197°
2026-04-27 09:49 61.56872 -149.96277 28889 ft 450 kts 189°
2026-04-27 09:49 61.50582 -149.96568 28911 ft 455 kts 183°
2026-04-27 09:50 61.44255 -149.96475 28912 ft 453 kts 183°
2026-04-27 09:50 61.37993 -149.96374 28907 ft 454 kts 183°
2026-04-27 09:51 61.31651 -149.96272 28917 ft 454 kts 183°
2026-04-27 09:51 61.25525 -149.98036 28922 ft 447 kts 198°
2026-04-27 09:52 61.19839 -150.03191 28921 ft 445 kts 212°
2026-04-27 09:52 61.15098 -150.11198 28921 ft 447 kts 226°
2026-04-27 09:53 61.11513 -150.21692 28913 ft 450 kts 240°
2026-04-27 09:53 61.09042 -150.33603 28919 ft 452 kts 245°
2026-04-27 09:54 61.06654 -150.45535 28909 ft 452 kts 245°
2026-04-27 09:54 61.04227 -150.57442 28900 ft 450 kts 244°
2026-04-27 09:55 61.01796 -150.69226 28903 ft 449 kts 244°
2026-04-27 09:55 60.98080 -150.87050 28897 ft 450 kts 244°
2026-04-27 09:56 60.95606 -150.98810 28895 ft 449 kts 244°
2026-04-27 09:56 60.93114 -151.10586 28901 ft 451 kts 243°
2026-04-27 09:57 60.90611 -151.22350 28898 ft 451 kts 243°
2026-04-27 09:57 60.88069 -151.34146 28903 ft 451 kts 241°
2026-04-27 09:58 60.84726 -151.44856 28911 ft 447 kts 232°
2026-04-27 09:58 60.81083 -151.55061 28911 ft 446 kts 232°
2026-04-27 09:59 60.77427 -151.65256 28917 ft 445 kts 231°
2026-04-27 09:59 60.73747 -151.75470 28912 ft 448 kts 231°
2026-04-27 10:00 60.70062 -151.85654 28905 ft 445 kts 230°
2026-04-27 10:00 60.66363 -151.95831 28917 ft 447 kts 230°
2026-04-27 10:01 60.62662 -152.05974 28903 ft 446 kts 230°
2026-04-27 10:01 60.58937 -152.16133 28904 ft 448 kts 230°
2026-04-27 10:02 60.55242 -152.26172 28900 ft 446 kts 230°
2026-04-27 10:02 60.51500 -152.36290 28847 ft 449 kts 230°
2026-04-27 10:03 60.47747 -152.46397 28789 ft 446 kts 230°
2026-04-27 10:03 60.44013 -152.56409 28756 ft 448 kts 230°